THORAD AGENA D DEB, 42511

Orbit data source: Space-Track

THORAD AGENA D DEB, 42511 is space debris in SSO originally from a launch on Wed, 08 Apr 1970 UTC launched from the Air Force Western Test Range (AFWTR). Debris objects in space refer to the collection of defunct objects orbiting the Earth. Examples of debris include non-operational satellites, rocket bodies, and fragments generated from explosions, collisions, or faulty payload assembly.

Loading next visibility...
Identifier
42511, 1970-025RR
Orbit
SSO
Country
Flag of USUS
Related business
Manufacturer
Unknown
Mission
Spacecraft
Bus & Motor
Unknown
Mass
Unknown
Launch date (UTC)
1970-04-08 (56 years ago)
Launch vehicle
Unknown
Launch site
Air Force Western Test Range (AFWTR)
Object type
Payload
Rocket body
Debris
Shape & HBR
Unknown shape, 0.1 m
Radar Cross Section
Medium (>0.1 m² and <1 m²)

Expand to show TLE details & history
Last TLE update: 2 days ago

TLE from 2 days ago
0 THORAD AGENA D DEB
1 42511U 70025RR  26206.91280739 -.00000105  00000-0 -20182-3 0  9996
2 42511 100.1712  99.3272 0456159 283.5928  71.4760 12.72828775587909
Epoch: 2026-07-25T21:54Z
TLE epoch observation values (Epoch: 2026-07-25T21:54:26.558Z)
Latitude
-0.00005°
Longitude
-172.90173°
Altitude
1,275.597 km
Speed
7.263 km/s
True Right ascension
06h 37m 18s
True Declination
0° 00' 00"
Sunlit
Object was in daylight at epoch
Visualization orbit readout
Latitude
Unknown
Longitude
Unknown
Altitude
Unknown
Speed
Unknown
Apparent Right ascension
Unknown
Apparent Declination
Unknown
Sunlit
N/A
Visualization observer readout
Local Sidereal Time
10:31:37
Azimuth
Unknown
Elevation
Unknown
Doppler factor
Unknown
Orbital elements
Apogee altitude
1,721.2 km
Perigee altitude
1,014.519 km
Semi-major axis
7,745.996 km
Eccentricity
0.04562
Inclination
100.1712°
RAAN
99.3272°
Arg. of periapsis
283.5928°
True anomaly
76.51723°
Mean anomaly
71.476°
Eccentric anomaly
73.9882°
Mean motion
3.18366 °/min
Orbital period
113.08 mins
BSTAR
-0.00020182
Loading maneuver chart data...
Computing Atmospheric mass density...

Documentation

Showing up to 5 results
|